Wind_Speed
8 10 7 6 8 11 10 8 8 7 6 5 7 14 14 12 18 19 16 17 16 14
7 7 9 9 8 9 8 7 8 8 3 3 7 10 15 21 20 19 16 16 13 10
7 7 7 6 7 5 6 6 5 4 5 3 7 8 12 19 20 19 18 13 8 9
7 7 7 7 6 5 5 5 3 4 6 5 7 8 10 11 13 10 11 9 8 7
8 8 8 7 7 6 6 4 2 3 4 7 9 11 14 15 15 14 15 12 10 9
8 9 9 8 6 6 7 5 4 3 6 7 9 13 16 15 15 15 13 11 10 9
8 9 8 8 7 8 6 5 6 7 8 9 10 11 12 12 14 14 12 12 11 11
7 8 8 9 9 8 8 8 8 8 9 10 12 12 13 13 13 12 14 13 12 10
5 7 9 10 11 10 10 10 11 12 12 13 14 11 11 13 15 15 15 15 12 10
4 5 8 9 11 12 13 13 15 15 15 17 16 14 13 13 13 13 12 11 10 10
2 4 5 6 8 10 11 12 13 14 14 15 15 12 10 10 10 11 11 10 9 8
5 3 3 3 4 6 7 9 10 11 11 11 11 11 10 9 10 10 9 8 7 6
6 6 4 3 3 2 4 6 7 8 9 9 9 11 10 9 8 9 8 7 6 6
7 6 6 5 3 3 4 4 5 5 6 6 6 6 7 10 10 9 10 8 8 7
Wind_Direction
19 17 357 29 47 48 55 47 57 72 113 175 184 197 212 178 181 186 196 202 205 211
24 13 18 18 36 52 55 43 53 62 86 174 176 175 199 207 196 190 196 198 197 210
21 20 23 22 32 31 49 51 67 80 94 123 196 185 176 197 192 193 184 184 199 245
28 28 30 30 24 36 55 32 37 84 83 111 159 187 200 178 173 174 175 179 180 197
33 35 39 31 27 38 60 43 20 90 111 115 123 140 174 177 160 153 160 168 174 177
42 46 40 39 41 51 61 52 64 95 103 117 119 132 131 138 144 157 161 168 169 173
41 46 52 56 63 73 83 93 87 89 92 107 114 123 130 136 140 146 150 151 154 151
56 56 63 69 73 86 97 101 112 110 105 112 121 126 132 134 133 141 137 134 135 139
72 71 75 83 91 95 96 104 115 118 115 110 106 113 129 135 136 137 132 127 121 123
92 82 79 89 95 97 99 108 109 111 117 111 111 119 124 130 130 132 129 125 128 129
89 102 94 94 96 102 107 112 113 115 114 115 113 122 124 129 136 134 127 132 135 142
173 153 131 111 101 108 116 114 114 117 124 129 127 131 133 143 141 129 135 152 156 159
176 171 165 136 127 128 143 140 134 131 137 144 153 162 162 158 161 163 163 161 167 169
182 180 179 182 188 167 164 167 159 153 151 161 174 183 182 178 189 190 182 182 174 176
Height
794 792 795 797 795 789 788 789 790 791 791 794 796 798 802 802 808 813 817 820 823 826
795 794 793 791 790 790 789 788 787 788 792 794 795 797 799 803 807 810 814 817 820 823
797 795 793 792 791 791 790 790 790 792 793 793 795 796 798 802 805 809 812 814 817 819
797 796 795 794 793 792 790 791 792 793 792 793 794 795 797 801 804 806 809 813 813 816
798 796 795 794 793 792 792 793 794 794 794 792 793 795 797 801 802 805 808 811 812 816
798 797 796 795 794 794 793 795 796 795 794 794 795 797 798 800 801 805 809 811 812 814
800 798 797 796 795 794 795 797 797 796 796 796 798 799 801 803 805 807 810 810 812 815
802 801 799 798 797 797 798 797 799 799 799 800 800 802 803 805 806 809 810 812 813 816
805 804 803 802 801 801 801 801 800 801 802 802 803 805 806 808 809 811 812 813 815 817
808 807 806 805 804 803 802 803 803 803 805 805 806 808 809 811 812 813 815 816 818 818
810 810 809 808 807 807 807 806 805 806 807 807 808 809 811 813 814 815 816 818 819 820
809 811 811 811 811 810 809 809 809 809 809 810 811 812 813 814 816 816 818 820 820 820
807 808 811 812 812 813 812 812 812 813 813 813 814 814 814 815 816 817 819 819 820 820
806 807 808 810 812 813 814 814 814 814 815 815 816 816 816 816 816 817 817 818 818 820